Pierre, SD

1:43 AM CDT on September 25, 2017 (GMT -0500)
Pierre Regional

Weather History for KPIR - April, 2013

Change the Weather History Date:

Thursday, April 25, 2013

  Actual Average Record
Temperature  
Mean Temperature 48 °F 51 °F  
Max Temperature 73 °F 64 °F 94 °F (1962)
Min Temperature 22 °F 38 °F 22 °F (2013)
Degree Days  
Heating Degree Days 17 14  
Month to date heating degree days 778 479  
Since 1 July heating degree days 7303 6924  
Cooling Degree Days 0 0  
Month to date cooling degree days 0 0  
Year to date cooling degree days 0 0  
Moisture  
Dew Point 26 °F    
Average Humidity 54    
Maximum Humidity 92    
Minimum Humidity 15    
Precipitation  
Precipitation 0.00 in 0.07 in 1.91 in (1929)
Month to date precipitation 2.88 1.43  
Year to date precipitation 4.69 3.67  
Snow  
Snow 0.00 in 0.10 in 2.00 in (1988)
Month to date snowfall 20.8 3.8  
Since 1 July snowfall 55.5 31.6  
Snow Depth 0.00 in    
Sea Level Pressure  
Sea Level Pressure 29.96 in    
Wind  
Wind Speed 9 mph (ESE)    
Max Wind Speed 26 mph    
Max Gust Speed 31 mph    
Visibility 10 miles    
Events      
T = Trace of Precipitation, MM = Missing Value Source: NWS Daily Summary

Daily Weather History Graph

Daily Weather History Graph

Search for Another Location

Airport or City:

Trip Planner

Search our weather history database for the weather conditions in past years. The results will help you decide how hot, cold, wet, or windy it might be!

Date:

Astronomy

Apr. 25, 2013 Rise Set
Actual Time 6:40 AM CDT 8:38 PM CDT
Civil Twilight 6:09 AM CDT 9:09 PM CDT
Nautical Twilight 5:30 AM CDT 9:48 PM CDT
Astronomical Twilight 4:49 AM CDT 10:30 PM CDT
Moon 8:54 PM CDT 6:24 AM CDT
Length of Visible Light 15h 00m
Length of Day
13h 57m
Full, 100% of the Moon is Illuminated
Apr 25
Full
Apr 25
Full
May 2
Last Quarter
May 9
New
May 17
First Quarter

Hourly Weather History & Observations

Time (CDT) Temp. Windchill Dew Point Humidity Pressure Visibility Wind Dir Wind Speed Gust Speed Precip Events Conditions
12:53 AM 28.0 °F 24.2 °F 19.9 °F 72% 30.17 in 10.0 mi SE 3.5 mph - N/A   Mostly Cloudy
1:53 AM 27.0 °F - 19.9 °F 75% 30.17 in 10.0 mi Calm Calm - N/A   Overcast
2:53 AM 23.0 °F 18.4 °F 19.9 °F 88% 30.15 in 10.0 mi East 3.5 mph - N/A   Clear
3:53 AM 26.1 °F 21.9 °F 21.0 °F 81% 30.14 in 10.0 mi SE 3.5 mph - N/A   Clear
4:53 AM 23.0 °F 17.0 °F 18.0 °F 81% 30.13 in 10.0 mi SE 4.6 mph - N/A   Clear
6:53 AM 25.0 °F 19.3 °F 21.0 °F 85% 30.11 in 10.0 mi ESE 4.6 mph - N/A   Clear
7:53 AM 28.9 °F 22.8 °F 26.1 °F 89% 30.09 in 10.0 mi SE 5.8 mph - N/A   Clear
8:53 AM 35.1 °F 29.3 °F 28.0 °F 76% 30.07 in 10.0 mi SE 6.9 mph - N/A   Partly Cloudy
9:53 AM 41.0 °F 34.7 °F 30.0 °F 65% 30.03 in 10.0 mi SE 10.4 mph - N/A   Clear
10:53 AM 48.9 °F - 32.0 °F 52% 29.98 in 10.0 mi SE 15.0 mph - N/A   Clear
11:53 AM 57.9 °F - 30.9 °F 36% 29.95 in 10.0 mi South 20.7 mph 29.9 mph N/A   Clear
12:53 PM 62.1 °F - 30.0 °F 30% 29.91 in 10.0 mi South 17.3 mph 25.3 mph N/A   Clear
1:53 PM 66.0 °F - 28.9 °F 25% 29.87 in 10.0 mi South 19.6 mph 23.0 mph N/A   Clear
2:53 PM 69.1 °F - 28.9 °F 22% 29.84 in 10.0 mi South 13.8 mph 20.7 mph N/A   Clear
3:53 PM 72.0 °F - 26.1 °F 18% 29.81 in 10.0 mi WNW 8.1 mph 20.7 mph N/A   Clear
4:53 PM 72.0 °F - 23.0 °F 16% 29.79 in 10.0 mi West 15.0 mph 18.4 mph N/A   Clear
5:53 PM 71.1 °F - 21.9 °F 16% 29.79 in 10.0 mi WNW 12.7 mph - N/A   Clear
6:53 PM 69.1 °F - 23.0 °F 18% 29.80 in 10.0 mi North 8.1 mph - N/A   Partly Cloudy
7:53 PM 66.9 °F - 28.9 °F 24% 29.79 in 10.0 mi North 5.8 mph - N/A   Clear
8:53 PM 57.0 °F - 27.0 °F 32% 29.81 in 10.0 mi North 6.9 mph - N/A   Clear
9:53 PM 50.0 °F - 28.9 °F 44% 29.84 in 10.0 mi NNE 4.6 mph - N/A   Clear
10:53 PM 51.1 °F - 28.0 °F 41% 29.86 in 10.0 mi North 9.2 mph - N/A   Clear
11:53 PM 48.0 °F - 28.9 °F 48% 29.87 in 10.0 mi North 10.4 mph - N/A   Clear